DELTA 1 DEB, 10867

Orbit data source: Space-Track

DELTA 1 DEB, 10867 is space debris in SSO originally from a launch on Thu, 29 Jul 1976 UTC launched from the Air Force Western Test Range (AFWTR). Debris objects in space refer to the collection of defunct objects orbiting the Earth. Examples of debris include non-operational satellites, rocket bodies, and fragments generated from explosions, collisions, or faulty payload assembly.

Loading next visibility...
Identifier
10867, 1976-077CV
Orbit
SSO
Country
Flag of USUS
Related business
Manufacturer
Unknown
Mission
Spacecraft
Bus & Motor
Unknown
Mass
Unknown
Launch date (UTC)
1976-07-29 (50 years ago)
Launch vehicle
Unknown
Launch site
Air Force Western Test Range (AFWTR)
Object type
Payload
Rocket body
Debris
Shape & HBR
Unknown shape, 0.1 m
Radar Cross Section
Small (<0.1 m²)

Expand to show TLE details & history
Last TLE update: 7 hours ago

TLE from 7 hours ago
0 DELTA 1 DEB
1 10867U 76077CV  26118.97335262  .00001127  00000-0  27130-2 0  9990
2 10867 101.8279 121.6429 0414435   5.3638  20.4157 12.97900867310689
Epoch: 2026-04-28T23:21Z
TLE epoch observation values (Epoch: 2026-04-28T23:21:37.666Z)
Latitude
26.92871°
Longitude
-91.77937°
Altitude
977.946 km
Speed
7.506 km/s
True Right ascension
07h 42m 16s
True Declination
26° 47' 39"
Sunlit
Object was in daylight at epoch
Visualization orbit readout
Latitude
Unknown
Longitude
Unknown
Altitude
Unknown
Speed
Unknown
Apparent Right ascension
Unknown
Apparent Declination
Unknown
Sunlit
N/A
Visualization observer readout
Local Sidereal Time
13:55:47
Azimuth
Unknown
Elevation
Unknown
Doppler factor
Unknown
Orbital elements
Apogee altitude
1,584.683 km
Perigee altitude
950.934 km
Semi-major axis
7,645.945 km
Eccentricity
0.04144
Inclination
101.8279°
RAAN
121.6429°
Arg. of periapsis
5.3638°
True anomaly
22.15639°
Mean anomaly
20.4157°
Eccentric anomaly
21.27738°
Mean motion
3.24636 °/min
Orbital period
110.89 mins
BSTAR
0.002713
Loading maneuver chart data...
Computing Atmospheric mass density...
Loading historical data...
Loading historical data...
Loading historical data...
Loading historical data...
Loading historical data...
Loading historical data...
Loading historical data...

Documentation

Showing up to 5 results
|